{"data":{"norad_id":55769,"intl_designator":"2023-028AE","name":"STARLINK-5584","alt_names":[],"object_type":"PAYLOAD","status":"ACTIVE","operator":null,"country":"US","launch_date":"2023-03-03","launch_site_code":"AFWTR","launch_vehicle":null,"mission":null,"orbit_class":"UNKNOWN","rcs_meters":null,"size_class":null,"mass_kg":null,"dimensions":null,"purposes":["comms"],"wikipedia_slug":null,"has_3d_model":false,"image_url":null,"decayed_at":null,"tle_current":{"epoch":"2026-09-20T21:48:47.153376Z","epoch_age_seconds":67770,"freshness":"FRESH","line1":"1 55769U 23028AE  26263.90887909  .00000287  00000+0  31835-4 0  9996","line2":"2 55769  69.9982  92.2980 0002939 270.8949  89.1874 14.98324776195776","mean_motion":14.98324776,"eccentricity":0.0002939,"inclination_deg":69.9982,"raan_deg":92.298,"arg_perigee_deg":270.8949,"mean_anomaly_deg":89.1874,"bstar":3.1835e-5,"rev_number":19577,"period_min":96.107334208561,"perigee_km":570.02937934187,"apogee_km":574.11471221898,"semimajor_km":6950.2090457804,"source":"CELESTRAK","updated_at":"2026-09-21T09:00:33.316773Z"}}}